Weather History for Bullhead City, AZ

Change the Weather History Date:

Sunday, February 17, 2013

  Actual Average Record
Temperature  
Mean Temperature 59 °F -  
Max Temperature 77 °F 66 °F 82 °F (2014)
Min Temperature 41 °F 48 °F 37 °F (1990)
Degree Days  
Heating Degree Days 6    
Growing Degree Days 9 (Base 50)    
Moisture  
Dew Point 19 °F    
Average Humidity 25    
Maximum Humidity 49    
Minimum Humidity 7    
Precipitation  
Precipitation 0.00 in - - ()
Sea Level Pressure  
Sea Level Pressure 29.89 in    
Wind  
Wind Speed 4 mph (South)    
Max Wind Speed 13 mph    
Max Gust Speed 17 mph    
Visibility 10 miles    
Events      
Averages and records for this station are not official NWS values.
T = Trace of Precipitation, MM = Missing Value Source: NWS Daily Summary

Daily Weather History Graph

Daily Weather History Graph

Search for Another Location

Airport:

Trip Planner

Search our weather history database for the weather conditions in past years. The results will help you decide how hot, cold, wet, or windy it might be!

Date:

Astronomy

Feb. 17, 2013 Rise Set
Actual Time 7:21 AM MST 6:23 PM MST
Civil Twilight 6:56 AM MST 6:48 PM MST
Nautical Twilight 6:26 AM MST 7:18 PM MST
Astronomical Twilight 5:56 AM MST 7:48 PM MST
Moon 11:35 AM MST (2/17) 1:05 AM MST (2/17)
Length of Visible Light 11h 52m
Length of Day
11h 01m
Waxing Crescent, 49% of the Moon is Illuminated
Feb 17
Waxing Crescent
Feb 17
First Quarter
Feb 25
Full
Mar 4
Last Quarter
Mar 11
New

Hourly Weather History & Observations

Time (MST) Temp. Windchill Dew Point Humidity Pressure Visibility Wind Dir Wind Speed Gust Speed Precip Events Conditions
12:15 AM 57.2 °F - 26.6 °F 31% 29.98 in 10.0 mi NW 3.5 mph - N/A   Clear
12:35 AM 55.4 °F - 26.6 °F 33% 29.98 in 10.0 mi Calm Calm - N/A   Clear
12:55 AM 55.4 °F - 24.8 °F 31% 29.99 in 10.0 mi NE 3.5 mph - N/A   Clear
1:15 AM 53.6 °F - 26.6 °F 35% 29.99 in 10.0 mi NE 4.6 mph - N/A   Clear
1:35 AM 55.4 °F - 23.0 °F 29% 29.98 in 10.0 mi NE 5.8 mph - N/A   Clear
1:55 AM 53.6 °F - 24.8 °F 33% 29.98 in 10.0 mi North 5.8 mph - N/A   Clear
2:15 AM 51.8 °F - 24.8 °F 35% 29.98 in 10.0 mi Calm Calm - N/A   Clear
2:35 AM 50.0 °F - 23.0 °F 35% 29.97 in 10.0 mi ESE 3.5 mph - N/A   Clear
2:55 AM 48.2 °F - 23.0 °F 37% 29.96 in 10.0 mi East 3.5 mph - N/A   Clear
3:15 AM 46.4 °F 45.2 °F 23.0 °F 40% 29.96 in 10.0 mi East 3.5 mph - N/A   Clear
3:35 AM 46.4 °F 44.3 °F 21.2 °F 37% 29.96 in 10.0 mi ENE 4.6 mph - N/A   Clear
3:55 AM 48.2 °F - 19.4 °F 32% 29.95 in 10.0 mi NNE 3.5 mph - N/A   Clear
4:15 AM 48.2 °F - 19.4 °F 32% 29.94 in 10.0 mi NE 3.5 mph - N/A   Clear
4:35 AM 48.2 °F - 19.4 °F 32% 29.94 in 10.0 mi Calm Calm - N/A   Clear
4:55 AM 46.4 °F - 21.2 °F 37% 29.94 in 10.0 mi Calm Calm - N/A   Clear
5:15 AM 46.4 °F - 21.2 °F 37% 29.93 in 10.0 mi Calm Calm - N/A   Clear
5:35 AM 44.6 °F 43.1 °F 23.0 °F 43% 29.93 in 10.0 mi East 3.5 mph - N/A   Clear
5:55 AM 44.6 °F - 23.0 °F 43% 29.93 in 10.0 mi Calm Calm - N/A   Clear
6:15 AM 44.6 °F - 23.0 °F 43% 29.93 in 10.0 mi Calm Calm - N/A   Clear
6:55 AM 42.8 °F - 24.8 °F 49% 29.93 in 10.0 mi Calm Calm - N/A   Clear
7:15 AM 41.0 °F - 23.0 °F 49% 29.93 in 10.0 mi Calm Calm - N/A   Clear
7:35 AM 42.8 °F - 23.0 °F 46% 29.93 in 10.0 mi Calm Calm - N/A   Clear
7:55 AM 41.0 °F 39.0 °F 23.0 °F 49% 29.94 in 10.0 mi SSE 3.5 mph - N/A   Clear
8:15 AM 44.6 °F 42.2 °F 24.8 °F 46% 29.94 in 10.0 mi SE 4.6 mph - N/A   Clear
8:35 AM 46.4 °F 45.2 °F 23.0 °F 40% 29.94 in 10.0 mi SSE 3.5 mph - N/A   Clear
8:55 AM 46.4 °F 45.2 °F 23.0 °F 40% 29.94 in 10.0 mi WSW 3.5 mph - N/A   Clear
9:15 AM 46.4 °F - 23.0 °F 40% 29.94 in 10.0 mi Calm Calm - N/A   Clear
9:35 AM 48.2 °F - 23.0 °F 37% 29.94 in 10.0 mi SSW 3.5 mph - N/A   Clear
9:55 AM 50.0 °F - 23.0 °F 35% 29.93 in 10.0 mi WSW 5.8 mph - N/A   Clear
10:15 AM 51.8 °F - 23.0 °F 33% 29.93 in 10.0 mi Calm Calm - N/A   Clear
10:35 AM 53.6 °F - 23.0 °F 30% 29.93 in 10.0 mi SW 3.5 mph - N/A   Clear
10:55 AM 53.6 °F - 21.2 °F 28% 29.93 in 10.0 mi Calm Calm - N/A   Clear
11:15 AM 55.4 °F - 21.2 °F 26% 29.93 in 10.0 mi SE 4.6 mph - N/A   Clear
11:35 AM 57.2 °F - 21.2 °F 25% 29.92 in 10.0 mi SSE 3.5 mph - N/A   Clear
11:55 AM 59.0 °F - 19.4 °F 22% 29.91 in 10.0 mi WSW 3.5 mph - N/A   Clear
12:15 PM 62.6 °F - 19.4 °F 19% 29.90 in 10.0 mi WSW 5.8 mph - N/A   Clear
12:35 PM 64.4 °F - 19.4 °F 18% 29.89 in 10.0 mi West 8.1 mph - N/A   Clear
12:55 PM 64.4 °F - 21.2 °F 19% 29.88 in 10.0 mi SSW 8.1 mph - N/A   Clear
1:15 PM 66.2 °F - 21.2 °F 18% 29.87 in 10.0 mi WSW 4.6 mph - N/A   Clear
1:35 PM 68.0 °F - 23.0 °F 18% 29.85 in 10.0 mi SW 6.9 mph - N/A   Clear
1:55 PM 68.0 °F - 23.0 °F 18% 29.84 in 10.0 mi SSW 6.9 mph - N/A   Clear
2:15 PM 71.6 °F - 23.0 °F 16% 29.82 in 10.0 mi WSW 8.1 mph - N/A   Clear
2:35 PM 73.4 °F - 23.0 °F 15% 29.81 in 10.0 mi SSW 10.4 mph - N/A   Clear
2:55 PM 73.4 °F - 19.4 °F 13% 29.80 in 10.0 mi SW 9.2 mph - N/A   Clear
3:15 PM 75.2 °F - 17.6 °F 11% 29.79 in 10.0 mi South 12.7 mph 17.3 mph N/A   Clear
3:35 PM 75.2 °F - 15.8 °F 11% 29.79 in 10.0 mi South 11.5 mph - N/A   Clear
3:55 PM 75.2 °F - 14.0 °F 10% 29.79 in 10.0 mi South 11.5 mph - N/A   Clear
4:15 PM 75.2 °F - 14.0 °F 10% 29.79 in 10.0 mi South 8.1 mph - N/A   Clear
4:35 PM 77.0 °F - 12.2 °F 9% 29.79 in 10.0 mi SSW 9.2 mph 17.3 mph N/A   Clear
4:55 PM 75.2 °F - 10.4 °F 8% 29.78 in 10.0 mi South 11.5 mph - N/A   Clear
5:15 PM 77.0 °F - 8.6 °F 7% 29.78 in 10.0 mi South 8.1 mph - N/A   Clear
5:35 PM 75.2 °F - 8.6 °F 8% 29.78 in 10.0 mi South 9.2 mph - N/A   Clear
5:55 PM 75.2 °F - 8.6 °F 8% 29.78 in 10.0 mi SSE 12.7 mph - N/A   Clear
6:15 PM 73.4 °F - 10.4 °F 9% 29.78 in 10.0 mi SSE 11.5 mph - N/A   Clear
6:35 PM 71.6 °F - 10.4 °F 9% 29.78 in 10.0 mi SSE 12.7 mph - N/A   Clear
6:55 PM 71.6 °F - 10.4 °F 9% 29.79 in 10.0 mi SSE 12.7 mph - N/A   Clear
7:15 PM 68.0 °F - 14.0 °F 12% 29.81 in 10.0 mi Calm Calm - N/A   Clear
7:35 PM 66.2 °F - 14.0 °F 13% 29.82 in 10.0 mi NW 3.5 mph - N/A   Clear
7:55 PM 64.4 °F - 14.0 °F 14% 29.82 in 10.0 mi NE 3.5 mph - N/A   Clear
8:15 PM 62.6 °F - 15.8 °F 16% 29.83 in 10.0 mi Calm Calm - N/A   Clear
8:35 PM 62.6 °F - 14.0 °F 15% 29.84 in 10.0 mi SE 5.8 mph - N/A   Clear
8:55 PM 60.8 °F - 15.8 °F 17% 29.85 in 10.0 mi SE 3.5 mph - N/A   Clear
9:15 PM 62.6 °F - 14.0 °F 15% 29.85 in 10.0 mi Calm Calm - N/A   Clear
9:35 PM 59.0 °F - 14.0 °F 17% 29.86 in 10.0 mi Calm Calm - N/A   Clear
10:15 PM 60.8 °F - 12.2 °F 15% 29.87 in 10.0 mi Calm Calm - N/A   Clear
10:35 PM 57.2 °F - 19.4 °F 23% 29.88 in 10.0 mi NW 3.5 mph - N/A   Clear
10:55 PM 55.4 °F - 17.6 °F 23% 29.88 in 10.0 mi Calm Calm - N/A   Clear
11:15 PM 55.4 °F - 17.6 °F 23% 29.89 in 10.0 mi North 3.5 mph - N/A   Clear
11:35 PM 55.4 °F - 14.0 °F 20% 29.89 in 10.0 mi ENE 5.8 mph - N/A   Clear
11:55 PM 53.6 °F - 15.8 °F 22% 29.90 in 10.0 mi ESE 3.5 mph - N/A   Clear